Location: Gunung Kajang
(2.4167°N, 113.7167°E)
Time: 04:29:08
(UTC+00:00)

ARIANE 5 DEB (SYLDA) - Pass Details

Date: 29 May 2022
Orbit: 268 x 10820 km, 6.8° (Epoch: 24 June)

Event Time Altitude Azimuth Distance (km) Brightness Sun altitude
Exits shadow 16:25:44 -19° 83° (E) 6,273 8.5 -65.9°
Enters shadow 19:38:12 -45° 270° (W) 10,973 9.4 -36.5°
Maximum altitude 20:02:40 60° 9° (N) 1,096 4.3 -31.1°
